Weather in Buyskoye

Russia / Kirov Oblast     57°04′51″N   49°42′35″E
temp.,
°C
wind,
m/s
gust,
m/s
humid.,
%
clouds,
%
prec.,
mm/h
press.,
hPa
HPBL,
m
4 march, thu
thu400:00−9wsw499492 0.1 1001169
03:00−7sw5119496 0.3 1000360
06:00−5sw5109499 0.2 996338
09:00−2sw61191100 0.3 994739
12:00−1ssw71196100 0.4 990799
15:000sw101698100 2.6 9871146
18:00−3w8177966 0.2 987764
21:00−5wnw10178875 0.3 991737
5 march, fri
fri500:00−8wnw71391100 0.1 994484
03:00−12wnw5119491 0.1 998231
06:00−16wnw479410 0.0 1000108
09:00−13wnw36895 0.0 1002179
12:00−10w35870 0.0 1003273
15:00−8wsw47880 0.0 1004439
18:00−11wsw459429 0.0 100584
21:00−9wsw4109562 0.1 1007265
6 march, sat
sat600:00−10w379699 0.2 1008165
03:00−14nw339693 0.3 101040
06:00−19nw349388 0.0 101161
09:00−18nw359344 0.0 1012180
12:00−14wnw359017 0.0 1012358
15:00−14wnw468943 0.0 1012507
18:00−18wnw339639 0.0 101220
21:00−19w349719 0.0 101233
7 march, sun
sun700:00−20w34999 0.0 101240
03:00−21w339922 0.0 101220
06:00−21sw349956 0.0 101129
09:00−17ssw469762 0.0 1009183
12:00−12s599396 0.0 1007404
15:00−10s7129198 0.1 1004604
18:00−10s81591100 0.1 1001663
21:00−7s71393100 0.4 998740
8 march, mon
mon800:00−7s71394100 0.5 993754
03:00−6s71394100 1.3 992682
06:00−9w91592100 0.8 993836
09:00−11wsw71285100 1.1 995518
12:00−8wsw5887100 0.0 998656
15:00−6ssw4786100 0.1 999647
18:00−9s4891100 0.0 999201
21:00−13nw0090100 0.0 100021